Tracking 25709 objects as of 23-May-2022
HD Live streaming from Space Station
objects crossing your sky now

SPACEBEE-101

Track SPACEBEE-101 now!
10-day predictions


NORAD ID: 48884
Int'l Code: 2021-059F
Perigee: 521.6 km
Apogee: 533.4 km
Inclination: 97.6 °
Period: 95.0 minutes
Semi major axis: 6898 km
RCS: Unknown
Launch date: June 30, 2021
Source: United States (US)
Launch site: AIR FORCE EASTERN TEST RANGE (AFETR)
aabbcc
Your satellite tracking list
Your tracking list is empty




NASA's NSSDC Master Catalog

Two Line Element Set (TLE):
1 48884U 21059F   22143.31738213  .00015705  00000-0  83783-3 0  9999
2 48884  97.5505 273.0310 0008588 187.1202 172.9910 15.15210734 50127
Source of the keplerian elements: AFSPC